Temp
86 85 78 79 79 79 79 79 78 78 77 77 78 78 78 77 78 78 78 78 77 78 77 78 78 78 77 77 77 76 75 75 74 74 73 73 74 75 77 76 76 80 77
89 88 78 79 79 79 79 78 78 77 77 77 78 78 78 78 78 78 78 78 78 78 77 77 78 78 77 77 76 76 76 76 75 74 73 72 73 76 77 76 76 78 76
89 89 83 79 79 79 78 78 77 77 77 77 78 78 79 78 78 78 77 77 77 77 76 76 76 77 76 76 76 76 76 75 74 73 72 76 80 76 76 75 76 76 76
91 90 88 78 79 78 78 77 77 77 77 77 77 78 78 78 78 77 78 77 76 75 75 75 74 75 75 75 76 76 75 75 74 73 76 81 81 77 76 76 76 76 76
90 90 85 78 79 78 78 77 77 77 77 77 77 77 77 77 78 78 78 77 75 75 75 74 74 74 74 74 75 75 76 74 73 73 78 78 78 80 76 75 76 76 76
91 91 79 78 78 78 78 77 77 77 77 77 76 76 77 77 77 77 76 75 75 74 74 74 74 74 74 74 74 75 75 74 72 77 78 78 77 76 76 75 75 76 75
91 91 85 78 78 78 77 77 77 77 77 77 77 76 77 77 77 77 76 75 75 74 74 75 75 74 74 74 74 74 74 73 75 76 76 78 77 77 76 75 75 75 75
90 88 86 77 77 77 77 77 77 77 77 76 76 77 77 75 76 76 76 75 75 74 74 74 75 75 75 74 74 74 73 71 74 76 75 77 76 75 75 74 75 75 76
90 88 88 85 80 75 76 76 76 76 76 76 76 76 75 73 74 75 75 75 74 74 74 74 74 74 74 74 74 73 72 71 74 76 77 78 75 76 74 74 74 75 75
87 87 88 87 86 83 82 75 75 75 75 75 75 74 72 73 73 74 74 74 73 73 74 73 73 73 74 73 73 72 71 70 73 75 77 77 76 76 75 74 74 74 75
84 86 87 87 87 87 87 81 75 74 73 73 73 71 73 79 81 79 73 72 71 72 72 73 73 73 72 71 71 71 70 75 77 78 79 76 76 76 75 73 73 74 74
84 84 86 86 86 86 86 85 83 84 82 83 83 82 83 83 83 79 72 70 71 71 71 72 72 72 71 75 79 71 74 78 79 78 78 74 75 75 75 74 73 73 73
87 87 85 85 86 86 85 85 86 85 84 84 83 83 83 82 82 81 81 80 79 71 76 77 77 77 79 78 78 79 79 79 79 78 77 73 74 75 74 74 73 73 73
86 85 86 86 84 85 85 83 85 84 84 84 83 83 82 82 81 80 80 80 79 79 78 78 79 79 79 79 80 79 79 79 79 79 78 71 73 75 75 74 73 73 73
85 85 85 85 84 83 83 84 84 84 83 84 82 83 82 80 80 80 80 80 80 80 79 79 79 79 80 80 80 79 79 79 80 80 79 71 70 72 74 74 73 73 74
85 83 85 85 85 84 83 82 83 84 84 83 83 82 81 80 79 78 78 79 78 79 78 77 76 76 77 78 77 78 79 80 80 80 80 79 71 70 72 73 73 73 73
83 81 81 82 84 84 83 82 83 83 82 82 81 81 80 80 79 78 78 77 74 75 77 77 78 77 77 77 76 78 78 78 78 79 79 79 78 69 69 73 73 73 72
81 80 79 79 81 82 83 82 83 82 82 80 81 81 79 79 78 77 75 74 77 78 77 76 75 75 74 75 75 75 75 76 77 78 78 79 78 78 75 69 71 73 73
80 80 79 80 81 81 82 82 81 80 80 80 79 78 78 77 78 77 75 75 77 75 75 74 73 73 71 72 73 74 74 75 76 78 78 78 79 78 77 73 68 67 68
80 80 80 80 80 80 80 80 79 78 77 77 76 76 76 76 75 74 74 74 74 73 72 71 70 71 70 70 71 70 72 73 74 75 78 76 75 75 76 77 77 75 66
79 79 79 79 80 80 79 76 74 72 73 73 73 74 74 73 73 71 71 71 70 69 69 69 68 66 66 68 65 65 66 72 71 72 72 73 73 76 76 76 77 75 73
77 77 77 77 78 78 76 75 74 73 72 72 71 71 72 71 70 70 68 68 68 67 66 65 64 62 64 65 61 59 56 62 66 68 69 71 70 73 72 75 73 73 72
73 73 73 73 74 74 74 74 73 73 72 70 69 69 68 69 68 67 66 66 65 65 63 63 62 61 58 62 63 59 53 51 57 64 64 68 67 67 70 69 71 71 71
70 72 73 73 74 75 75 74 72 69 66 67 68 68 68 67 65 65 65 64 64 64 61 61 63 61 59 56 60 62 61 60 52 51 61 61 65 66 65 67 67 68 69
70 69 71 71 71 72 72 72 70 68 67 67 68 67 67 67 65 63 63 62 61 61 60 59 59 59 59 58 56 56 57 58 58 52 48 53 59 62 64 64 65 65 66
67 68 68 68 68 69 69 69 67 66 66 65 64 64 65 65 64 61 61 61 60 59 58 57 58 57 57 57 57 56 55 53 52 51 49 50 51 56 60 60 61 63 64
MSLP
1007.35 1008.04 1008.94 1009.17 1009.49 1009.73 1010.01 1010.22 1010.47 1010.77 1011.08 1011.35 1011.43 1011.52 1011.68 1011.79 1011.93 1012.07 1012.08 1011.86 1012.01 1012.06 1012.09 1011.76 1011.66 1011.60 1011.59 1011.61 1011.76 1011.88 1012.06 1012.21 1012.30 1012.38 1012.44 1012.29 1012.15 1012.00 1011.72 1011.90 1011.98 1011.44 1011.71
1007.17 1007.87 1009.05 1009.30 1009.53 1009.85 1010.13 1010.35 1010.63 1010.80 1011.12 1011.39 1011.47 1011.67 1011.79 1011.88 1012.00 1012.10 1012.05 1012.12 1012.12 1012.15 1012.22 1012.03 1011.86 1011.78 1011.81 1011.89 1012.02 1012.02 1012.06 1012.13 1012.35 1012.43 1012.42 1012.30 1011.99 1011.93 1011.81 1011.91 1011.91 1011.64 1011.70
1007.30 1007.80 1008.92 1009.42 1009.63 1009.97 1010.28 1010.56 1010.84 1010.97 1011.15 1011.35 1011.51 1011.67 1011.74 1011.89 1011.90 1012.05 1012.20 1012.25 1012.36 1012.28 1012.43 1012.29 1012.20 1012.03 1012.04 1012.08 1012.07 1012.04 1012.08 1012.11 1012.26 1012.38 1012.38 1012.00 1011.20 1011.65 1011.85 1011.96 1011.82 1011.80 1011.68
1007.34 1007.78 1008.30 1009.50 1009.79 1010.10 1010.48 1010.76 1010.95 1011.10 1011.23 1011.36 1011.54 1011.58 1011.71 1011.85 1011.89 1012.04 1012.18 1012.27 1012.50 1012.63 1012.58 1012.51 1012.42 1012.24 1012.28 1012.23 1012.09 1012.09 1012.08 1012.06 1012.16 1012.27 1011.90 1011.10 1011.03 1011.28 1011.63 1011.74 1011.64 1011.68 1011.72
1007.45 1007.74 1008.49 1009.45 1009.86 1010.21 1010.57 1010.93 1011.07 1011.19 1011.36 1011.44 1011.54 1011.69 1011.84 1011.87 1011.82 1011.97 1012.01 1012.18 1012.51 1012.66 1012.65 1012.60 1012.54 1012.46 1012.41 1012.28 1012.18 1012.01 1012.02 1012.06 1012.12 1012.12 1011.45 1011.31 1011.31 1011.03 1011.51 1011.72 1011.60 1011.64 1011.72
1007.38 1007.72 1009.06 1009.57 1010.02 1010.41 1010.66 1010.95 1011.17 1011.27 1011.39 1011.48 1011.58 1011.69 1011.81 1011.83 1011.82 1011.87 1012.01 1012.26 1012.48 1012.62 1012.64 1012.56 1012.50 1012.42 1012.31 1012.23 1012.12 1012.02 1012.02 1011.95 1012.04 1011.62 1011.12 1011.25 1011.34 1011.35 1011.30 1011.52 1011.57 1011.61 1011.69
1007.32 1007.67 1008.90 1009.68 1010.10 1010.41 1010.72 1011.04 1011.21 1011.28 1011.33 1011.47 1011.55 1011.66 1011.62 1011.80 1011.68 1011.73 1011.98 1012.10 1012.29 1012.49 1012.49 1012.40 1012.36 1012.26 1012.18 1012.07 1012.00 1011.94 1011.94 1011.91 1011.81 1011.55 1011.35 1010.88 1011.06 1011.11 1011.21 1011.32 1011.29 1011.34 1011.31
1007.53 1007.96 1008.67 1009.64 1010.09 1010.31 1010.61 1010.84 1011.07 1011.13 1011.27 1011.42 1011.50 1011.62 1011.65 1011.83 1011.68 1011.65 1011.86 1012.09 1012.07 1012.27 1012.26 1012.29 1012.19 1012.09 1011.98 1011.86 1011.79 1011.70 1011.73 1011.77 1011.56 1011.28 1011.19 1010.82 1010.73 1011.00 1011.16 1011.12 1011.08 1011.01 1010.94
1007.67 1008.03 1008.29 1009.05 1009.79 1010.31 1010.51 1010.80 1011.00 1011.07 1011.11 1011.39 1011.50 1011.65 1011.68 1011.88 1011.94 1011.91 1011.99 1012.12 1012.12 1012.16 1012.19 1012.13 1012.05 1011.91 1011.81 1011.68 1011.50 1011.44 1011.42 1011.45 1011.34 1010.85 1010.54 1010.22 1010.21 1010.49 1010.71 1010.75 1010.71 1010.54 1010.54
1007.85 1007.99 1008.17 1008.35 1008.93 1009.44 1009.78 1010.45 1010.81 1011.05 1011.13 1011.28 1011.57 1011.67 1011.74 1011.79 1011.76 1011.76 1011.85 1011.94 1012.02 1012.04 1012.01 1011.91 1011.93 1011.76 1011.64 1011.42 1011.26 1011.17 1011.10 1011.15 1010.94 1010.51 1010.06 1009.80 1009.77 1009.97 1010.13 1010.23 1010.20 1010.12 1009.99
1007.87 1007.99 1008.08 1008.18 1008.31 1008.59 1008.89 1009.65 1010.52 1010.80 1011.14 1011.26 1011.50 1011.53 1011.51 1011.19 1010.90 1011.16 1011.36 1011.63 1011.83 1011.88 1011.84 1011.78 1011.63 1011.52 1011.36 1011.22 1010.94 1010.65 1010.72 1010.42 1010.02 1009.50 1009.24 1009.18 1009.34 1009.51 1009.60 1009.66 1009.62 1009.52 1009.45
1007.33 1007.74 1007.93 1008.10 1008.25 1008.53 1008.87 1009.30 1009.75 1009.62 1010.29 1010.22 1010.50 1010.58 1010.54 1010.54 1010.65 1011.09 1011.32 1011.45 1011.51 1011.50 1011.48 1011.36 1011.17 1010.99 1010.98 1010.48 1009.70 1009.92 1010.06 1009.33 1009.07 1008.87 1008.70 1008.68 1008.75 1008.80 1008.82 1008.84 1008.82 1008.73 1008.69
1006.65 1007.04 1007.70 1007.96 1008.16 1008.44 1008.72 1008.98 1009.11 1009.42 1009.71 1009.80 1010.15 1010.35 1010.44 1010.68 1010.62 1010.65 1010.61 1010.65 1010.68 1010.89 1010.73 1010.39 1010.23 1010.25 1009.89 1009.84 1009.62 1009.38 1009.04 1008.85 1008.58 1008.32 1008.10 1008.09 1008.17 1008.30 1008.29 1008.19 1008.10 1008.00 1007.87
1006.40 1006.95 1007.36 1007.76 1008.07 1008.28 1008.40 1009.03 1008.87 1009.23 1009.44 1009.62 1009.85 1010.22 1010.35 1010.36 1010.57 1010.52 1010.44 1010.42 1010.34 1010.24 1010.17 1010.03 1009.84 1009.61 1009.44 1009.22 1008.97 1008.74 1008.50 1008.33 1008.06 1007.74 1007.43 1007.37 1007.35 1007.40 1007.44 1007.44 1007.30 1007.15 1007.04
1006.23 1006.80 1007.26 1007.54 1007.89 1008.21 1008.51 1008.72 1009.00 1009.09 1009.45 1009.51 1009.87 1010.13 1010.35 1010.45 1010.45 1010.50 1010.43 1010.23 1010.14 1010.02 1010.01 1009.87 1009.63 1009.24 1009.05 1008.76 1008.49 1008.25 1007.97 1007.70 1007.34 1007.03 1006.72 1006.55 1006.55 1006.52 1006.56 1006.60 1006.60 1006.37 1006.09
1006.23 1006.83 1007.01 1007.34 1007.70 1008.02 1008.36 1008.75 1008.99 1009.15 1009.15 1009.55 1009.78 1010.13 1010.43 1010.54 1010.63 1010.59 1010.50 1010.23 1010.14 1009.99 1009.85 1009.80 1009.66 1009.37 1009.08 1008.74 1008.34 1008.20 1007.61 1007.22 1006.79 1006.44 1006.08 1005.77 1005.67 1005.66 1005.63 1005.60 1005.54 1005.52 1005.33
1006.75 1007.13 1007.17 1007.36 1007.56 1007.85 1008.27 1008.73 1008.97 1009.26 1009.68 1009.81 1009.89 1010.15 1010.48 1010.53 1010.58 1010.68 1010.53 1010.48 1010.54 1010.28 1010.03 1009.82 1009.65 1009.43 1009.08 1008.68 1008.33 1007.94 1007.61 1007.27 1006.78 1006.23 1005.65 1005.22 1004.97 1004.88 1004.83 1004.67 1004.66 1004.66 1004.66
1006.95 1007.07 1007.40 1007.65 1007.72 1007.85 1008.21 1008.78 1008.99 1009.32 1009.66 1010.08 1010.17 1010.23 1010.65 1010.76 1010.88 1010.70 1010.82 1010.82 1010.60 1010.37 1010.22 1010.17 1009.83 1009.42 1009.16 1008.79 1008.25 1007.86 1007.57 1007.09 1006.58 1006.00 1005.41 1004.73 1004.31 1004.13 1003.93 1003.94 1003.87 1003.83 1003.81
1007.06 1007.13 1007.34 1007.43 1007.62 1008.02 1008.47 1008.93 1009.48 1009.86 1009.99 1010.28 1010.49 1010.77 1011.22 1011.26 1011.20 1011.09 1011.32 1011.34 1011.00 1010.92 1010.71 1010.61 1010.31 1009.99 1009.50 1008.96 1008.33 1007.80 1007.56 1006.79 1006.23 1005.51 1004.90 1004.25 1003.69 1003.23 1002.98 1002.75 1002.75 1002.79 1002.80
1007.17 1007.29 1007.45 1007.64 1007.95 1008.40 1008.85 1009.34 1009.82 1010.32 1010.79 1011.18 1011.40 1011.81 1011.94 1012.03 1012.07 1011.92 1011.78 1011.77 1011.62 1011.37 1011.26 1011.15 1010.84 1010.47 1010.06 1009.32 1008.71 1008.23 1007.48 1006.96 1006.23 1005.47 1004.51 1004.39 1004.08 1003.59 1002.93 1002.52 1001.85 1001.31 1001.39
1007.53 1007.55 1007.72 1007.93 1008.19 1008.45 1008.79 1009.40 1010.12 1010.77 1011.27 1011.65 1011.97 1012.29 1012.52 1012.68 1012.64 1012.59 1012.47 1012.37 1012.32 1012.06 1011.83 1011.64 1011.27 1010.96 1010.37 1009.86 1009.18 1008.43 1007.86 1006.60 1006.27 1005.63 1005.30 1004.91 1004.18 1003.50 1003.09 1002.65 1001.95 1001.37 1001.03
1007.99 1008.22 1008.48 1008.64 1008.83 1009.17 1009.63 1010.11 1010.69 1011.24 1011.76 1012.21 1012.59 1012.95 1013.02 1013.20 1013.25 1013.14 1013.19 1012.97 1012.86 1012.59 1012.36 1012.24 1011.91 1011.49 1011.00 1010.56 1009.85 1009.08 1007.81 1007.18 1006.76 1006.72 1006.17 1005.25 1004.65 1003.88 1003.34 1002.53 1002.19 1001.92 1001.45
1008.65 1008.95 1009.23 1009.45 1009.68 1010.16 1010.54 1010.85 1011.21 1011.65 1011.96 1012.40 1012.98 1013.32 1013.58 1013.61 1013.78 1013.80 1013.71 1013.58 1013.38 1013.10 1012.95 1012.78 1012.49 1012.21 1011.69 1011.10 1010.74 1010.16 1008.81 1008.01 1007.30 1006.96 1006.50 1005.37 1004.92 1004.54 1003.66 1003.24 1002.63 1002.20 1001.71
1009.30 1009.50 1009.68 1009.92 1010.24 1010.57 1010.65 1010.79 1011.22 1011.81 1012.38 1012.91 1013.20 1013.59 1013.75 1014.09 1014.25 1014.31 1014.20 1014.05 1013.84 1013.61 1013.51 1013.34 1013.04 1012.74 1012.25 1011.56 1011.11 1010.66 1010.30 1009.39 1008.09 1006.62 1006.51 1006.23 1005.61 1004.92 1004.40 1003.44 1003.01 1002.52 1001.99
1009.79 1010.10 1010.33 1010.65 1011.05 1011.28 1011.32 1011.49 1011.83 1012.29 1012.78 1013.27 1013.48 1013.68 1013.86 1014.08 1014.34 1014.68 1014.54 1014.41 1014.27 1014.17 1014.06 1013.88 1013.52 1013.13 1012.70 1012.17 1011.66 1011.09 1010.45 1009.62 1009.01 1008.21 1006.26 1006.20 1005.82 1005.34 1004.46 1004.06 1003.07 1002.87 1002.12
1010.34 1010.65 1010.97 1011.24 1011.54 1011.85 1012.09 1012.32 1012.56 1012.91 1013.20 1013.51 1013.79 1013.91 1013.97 1014.10 1014.48 1014.89 1014.88 1014.77 1014.67 1014.61 1014.42 1014.19 1013.86 1013.44 1012.96 1012.45 1012.09 1011.54 1010.89 1010.07 1009.24 1008.64 1007.44 1006.40 1005.63 1005.11 1004.50 1004.31 1003.57 1002.70 1001.79
Wind_Speed
6 13 13 11 13 11 11 11 10 9 7 5 3 4 5 5 3 6 6 9 5 6 8 8 6 6 9 6 6 6 4 5 5 5 7 8 5 5 8 2 4 9 3
8 13 12 11 12 10 10 10 9 9 7 5 3 2 1 3 5 5 7 6 5 6 7 9 9 9 10 8 2 1 3 5 4 5 6 10 11 7 4 2 4 8 6
8 12 13 9 11 9 11 10 8 8 6 4 2 1 1 1 3 5 3 4 5 5 6 7 9 9 9 9 8 4 4 3 5 6 8 8 9 10 5 5 8 7 9
8 9 11 10 10 9 12 10 7 6 5 3 1 1 3 3 3 4 1 3 2 3 5 7 9 8 9 9 8 5 5 4 4 5 8 8 7 6 6 6 6 8 7
8 7 12 12 9 12 10 8 6 5 4 2 2 4 5 4 5 4 3 4 2 3 4 5 5 6 7 8 9 10 9 4 4 8 8 6 5 6 3 6 9 9 11
8 8 13 11 9 9 8 8 6 5 3 2 1 4 5 7 6 6 7 7 4 1 4 5 5 5 6 7 8 9 12 5 4 9 8 7 6 8 7 8 10 11 12
7 8 11 10 8 7 7 7 6 5 3 2 1 3 5 10 7 7 6 8 5 1 3 5 6 7 7 7 7 7 9 10 9 10 11 7 7 9 10 11 13 13 13
7 7 12 10 7 8 8 9 8 6 6 3 1 4 5 8 9 3 4 6 3 3 4 5 8 10 10 8 8 7 6 6 9 9 10 9 6 9 12 14 16 14 17
7 8 8 11 9 8 6 5 6 8 6 2 1 2 3 3 4 6 4 0 2 5 5 6 9 10 10 10 9 8 7 6 9 9 10 7 8 11 13 15 16 18 18
6 8 8 9 11 10 9 10 6 4 5 4 3 1 1 4 6 4 2 3 3 7 9 9 11 11 13 12 12 11 8 8 12 11 9 8 11 15 17 18 19 19 21
6 8 8 9 8 7 6 11 9 7 4 4 6 8 6 6 6 5 5 3 5 9 10 11 12 13 12 12 16 16 10 7 10 7 6 9 11 17 19 20 21 22 22
10 10 9 8 8 7 5 7 7 8 7 8 7 6 4 2 1 3 5 6 8 11 10 14 14 14 11 9 7 12 7 9 8 8 7 11 14 19 21 22 23 24 24
9 8 9 8 8 8 6 5 4 3 4 4 5 4 3 2 3 3 2 3 4 4 6 5 7 7 7 7 8 8 9 10 7 7 10 12 17 21 23 24 25 25 26
7 7 8 9 8 8 5 5 4 4 4 3 4 3 3 2 2 3 3 3 3 3 6 6 5 8 9 10 11 12 12 10 7 7 9 13 17 23 25 26 27 27 27
6 7 7 8 9 7 7 5 4 4 4 4 3 2 2 3 3 4 4 4 4 5 6 6 7 8 10 11 11 12 13 13 14 8 7 11 14 20 24 26 28 29 29
2 3 5 8 9 9 7 6 4 3 3 3 1 1 3 3 4 4 5 5 5 6 6 7 6 8 9 10 11 13 14 13 13 13 9 10 13 17 22 26 28 29 30
3 1 2 4 7 8 8 6 4 3 1 1 2 2 3 3 4 5 5 5 5 5 7 7 8 9 8 9 11 11 11 15 13 14 12 10 10 12 20 25 26 27 28
3 5 4 4 6 8 7 6 4 4 3 3 3 3 6 7 6 4 5 5 7 7 6 7 7 8 8 8 8 8 8 10 13 14 12 11 9 9 8 18 21 23 26
5 6 7 6 8 8 8 6 7 6 5 5 7 8 9 10 9 8 7 7 9 6 7 7 8 9 8 9 9 9 10 10 11 11 14 14 12 9 8 10 13 19 23
8 9 10 9 11 11 8 8 7 8 9 8 9 9 10 9 10 8 7 8 8 7 7 8 10 9 9 9 10 11 9 11 12 12 10 11 13 15 14 16 11 9 21
11 11 12 11 11 8 8 8 8 8 8 8 9 11 10 10 10 10 7 8 8 8 9 10 9 11 8 9 9 8 11 10 14 10 11 12 14 13 16 15 12 8 9
13 13 13 12 11 10 8 8 8 8 8 8 7 8 9 10 11 9 10 8 9 7 9 10 10 8 7 9 10 10 8 8 9 12 11 11 16 11 13 14 16 16 13
13 13 13 12 12 11 12 9 8 8 6 7 7 6 8 10 11 10 9 8 8 7 7 8 9 10 8 8 11 9 8 9 12 9 12 10 16 13 11 15 18 17 17
12 11 13 13 12 10 10 9 11 8 8 6 6 6 6 8 9 9 9 9 8 6 8 7 8 8 8 8 7 8 11 13 13 12 6 12 11 14 16 12 14 16 19
11 10 11 13 12 11 10 10 8 9 7 5 4 6 6 6 7 9 9 8 8 6 8 9 9 9 7 8 8 9 10 9 11 13 15 11 10 10 11 14 13 14 18
10 10 10 12 12 11 10 11 10 9 7 6 6 5 4 5 5 8 9 8 8 8 8 7 8 9 8 8 8 9 10 10 10 11 14 14 15 12 10 13 13 12 15
Wind_Direction
148 138 162 162 165 167 156 149 140 129 117 92 59 105 62 98 103 34 23 26 46 8 358 23 358 37 37 61 80 96 78 56 43 18 344 324 303 297 290 189 298 256 119
123 141 161 166 171 164 159 147 143 133 132 118 94 132 40 29 34 358 18 38 39 20 10 11 5 28 22 20 17 70 53 16 345 341 331 296 251 245 271 239 274 322 326
126 135 163 172 164 161 158 147 151 139 141 138 165 117 235 278 41 30 46 46 41 4 8 358 354 5 12 359 353 339 345 21 345 321 308 274 277 187 243 288 285 299 327
125 140 162 162 169 151 148 152 158 155 141 150 222 43 298 252 238 162 133 65 49 25 351 356 349 344 345 347 355 329 325 339 308 300 287 292 318 159 211 269 282 276 286
130 142 111 152 159 153 152 158 159 155 158 154 272 307 323 323 246 222 206 144 95 31 349 352 356 342 321 327 334 334 322 349 309 282 289 302 311 302 200 273 280 271 268
138 143 116 133 148 162 167 161 157 159 167 207 276 294 298 304 276 198 143 138 144 85 355 338 334 319 319 321 320 312 308 326 302 297 295 294 285 282 295 287 272 276 277
140 129 139 139 152 161 156 161 182 183 181 193 259 277 307 347 289 218 196 160 152 197 304 314 306 298 298 302 303 308 312 325 302 301 297 281 280 294 284 277 268 273 260
138 138 134 146 160 176 194 191 192 196 203 180 216 289 306 9 24 346 198 187 183 224 255 313 322 309 309 291 290 292 294 291 290 285 279 286 271 276 277 277 273 266 268
148 159 152 166 179 178 218 225 212 209 213 241 154 288 334 22 20 44 69 7 355 306 309 294 300 304 299 301 303 289 275 265 276 274 275 270 245 251 258 263 265 264 260
175 173 171 172 169 182 193 189 219 237 192 196 234 238 24 268 247 215 248 211 312 302 298 294 289 292 289 293 292 282 262 258 263 255 247 250 249 256 257 257 258 259 262
197 197 193 181 178 188 197 163 182 213 214 188 223 213 223 234 208 183 90 355 312 291 286 287 283 280 284 283 264 254 237 262 268 261 262 259 243 255 258 258 258 257 255
205 204 200 200 186 191 180 181 200 190 207 204 204 194 229 252 298 315 303 250 254 258 264 263 260 258 262 258 264 217 230 246 258 267 261 253 249 254 255 254 254 255 253
210 193 202 199 200 195 195 201 203 199 199 203 222 227 225 247 250 242 279 245 265 203 248 257 256 238 284 288 286 280 280 279 269 262 262 249 244 255 259 258 256 255 254
205 199 194 205 202 206 198 194 210 193 191 210 182 222 241 246 245 279 300 310 286 287 299 290 290 289 279 274 275 279 280 276 274 269 266 247 237 248 254 258 259 256 254
201 196 213 208 206 207 206 197 209 207 180 199 188 231 274 274 300 316 304 303 304 310 295 304 303 305 302 304 297 290 287 283 282 279 273 263 238 240 250 256 260 260 256
162 221 223 214 213 198 197 196 195 202 195 185 190 265 314 299 305 310 305 318 322 330 331 318 317 309 306 307 311 303 294 292 288 282 275 272 245 235 243 251 257 261 263
74 327 238 237 218 200 183 180 180 162 322 84 65 27 316 317 331 330 331 339 355 330 322 324 324 328 323 322 314 315 322 317 308 298 289 283 283 248 235 247 255 260 263
76 61 46 144 192 179 168 162 157 101 93 77 63 54 27 26 14 353 7 15 353 356 349 351 341 336 327 309 304 304 293 293 299 295 287 287 274 272 265 238 247 256 261
76 76 85 101 118 140 134 114 91 102 83 69 58 60 52 46 37 42 32 20 3 3 355 350 343 339 330 318 321 322 316 304 300 292 295 282 276 270 258 257 230 233 242
92 95 91 95 104 113 117 113 98 79 72 69 64 58 48 47 37 26 24 16 0 358 358 349 342 343 330 328 329 312 319 308 297 284 307 352 327 322 308 295 274 243 228
89 87 88 99 112 118 117 107 105 103 94 80 68 58 49 40 32 28 15 11 5 357 356 350 347 340 333 344 320 326 304 323 315 347 337 329 315 315 318 305 298 325 303
94 92 88 86 87 88 94 91 95 92 85 83 75 59 52 43 33 27 15 5 5 351 2 356 357 345 342 338 338 315 328 319 352 333 311 314 303 325 321 318 336 328 325
95 94 93 91 96 99 106 109 106 107 94 80 63 62 44 42 31 23 17 5 6 359 6 357 358 349 340 338 346 323 332 326 320 312 316 314 336 320 312 324 320 316 315
100 94 95 92 93 90 84 81 79 87 87 73 67 52 55 43 36 19 14 10 10 2 7 351 356 342 341 335 334 339 313 316 318 316 319 305 315 316 305 302 317 309 297
107 101 99 96 90 85 83 92 97 99 95 79 67 53 49 47 40 24 14 12 11 7 2 349 342 338 331 331 330 323 318 317 321 310 311 310 299 301 307 296 322 305 295
115 107 103 102 95 89 88 87 89 89 82 80 62 45 29 40 31 32 10 9 5 360 350 337 330 321 319 320 319 315 321 319 312 315 303 305 304 304 307 312 298 303 314